Waarnemingen

Advertentie
Mijn weer
Helgoland, Duitsland (10015): temperatuur & dauwpunt: 15.01.2017 11:00:00 - 21.01.2017 11:00:00 (CET)Helgoland, Duitsland (10015): temperatuur 5cm: 15.01.2017 11:00:00 - 21.01.2017 11:00:00 (CET)Helgoland, Duitsland (10015): windsnelheid & windstoten: 15.01.2017 11:00:00 - 21.01.2017 11:00:00 (CET)Helgoland, Duitsland (10015): windrichting: 15.01.2017 11:00:00 - 21.01.2017 11:00:00 (CET)Helgoland, Duitsland (10015): luchtdruk: 15.01.2017 11:00:00 - 21.01.2017 11:00:00 (CET)Helgoland, Duitsland (10015): zicht: 15.01.2017 11:00:00 - 21.01.2017 11:00:00 (CET)Helgoland, Duitsland (10015): Zonneschijnduur: 15.01.2017 11:00:00 - 21.01.2017 11:00:00 (CET)Helgoland, Duitsland (10015): neerslag: 15.01.2017 11:00:00 - 21.01.2017 11:00:00 (CET)
Datum & Tijd tt [°C] td [°C] tt 5cm [°C] ff [km/u] ff [kn] fx [km/u] fx [kn] dd ppp [hPa] vv [km] sd [min] rr [mm]
21.01.2017 11:00:00 5,7 4,2 5,7 8 4 11 6 ZW 1032,9 41 0 0,0
21.01.2017 10:00:00 5,7 4,3 5,5 6 3 14 7 WZW 1033,1 - 0 0,0
21.01.2017 09:00:00 5,7 4,3 5,4 9 5 14 8 W 1032,7 35 0 0,0
21.01.2017 08:00:00 5,8 4,2 5,4 9 5 13 7 W 1032,7 52 0 0,0
21.01.2017 07:00:00 5,8 4,3 5,4 10 6 15 8 W 1032,7 44 0 0,0
21.01.2017 06:00:00 5,8 4,3 5,3 10 5 14 8 W 1032,8 38 0 0,0
21.01.2017 05:00:00 5,7 4,3 5,3 10 5 13 7 W 1033,1 35 0 0,0
21.01.2017 04:00:00 5,7 4,4 5,2 9 5 14 7 W 1033,4 29 0 0,0
21.01.2017 03:00:00 5,6 4,4 5,2 10 6 13 7 WZW 1033,7 22 0 0,0
21.01.2017 02:00:00 5,5 4,3 5,1 8 4 12 7 W 1033,8 23 0 0,0
21.01.2017 01:00:00 5,3 4,0 4,9 8 5 12 7 WZW 1034,1 28 0 0,0
21.01.2017 00:00:00 5,5 3,7 5,1 9 5 12 6 WZW 1034,5 32 0 0,0
20.01.2017 23:00:00 5,5 3,4 5,0 6 3 10 5 WZW 1034,5 37 0 0,0
20.01.2017 22:00:00 5,4 3,0 4,9 8 4 10 5 WZW 1034,5 34 0 0,0
20.01.2017 21:00:00 5,3 2,9 4,7 6 3 16 9 WZW 1034,6 28 0 0,0
20.01.2017 20:00:00 5,4 2,5 4,7 7 4 18 10 NNW 1034,8 34 0 0,0
20.01.2017 19:00:00 5,5 2,5 4,8 9 5 21 11 NNW 1034,8 33 0 0,0
20.01.2017 18:00:00 5,7 2,7 5,1 14 7 19 10 NNW 1034,8 36 0 0,0
20.01.2017 17:00:00 5,9 2,6 5,2 12 6 21 11 NW 1034,8 29 0 0,0
20.01.2017 16:00:00 5,9 3,0 5,4 15 8 21 11 NW 1034,7 25 0 0,0
20.01.2017 15:00:00 6,0 3,3 5,5 10 5 17 9 WNW 1034,8 28 0 0,0
20.01.2017 14:00:00 6,1 2,8 5,6 8 4 14 8 W 1035,1 34 0 0,0
20.01.2017 13:00:00 6,0 2,8 5,5 9 5 17 9 WNW 1035,6 44 0 0,0
20.01.2017 12:00:00 5,9 2,6 5,4 10 5 19 10 WNW 1036,0 60 0 0,0
20.01.2017 11:00:00 5,7 2,7 5,1 13 7 20 11 NW 1036,2 43 0 0,0
20.01.2017 10:00:00 5,7 3,8 5,0 10 6 17 9 WNW 1036,0 35 0 0,0
20.01.2017 09:00:00 5,8 5,1 5,3 9 5 16 9 W 1035,8 13 0 0,0
20.01.2017 08:00:00 5,6 5,1 5,3 11 6 16 9 W 1035,7 4,9 0 0,0
20.01.2017 07:00:00 5,6 5,1 5,2 13 7 21 11 W 1035,5 4,1 0 0,0
20.01.2017 06:00:00 5,5 5,0 5,2 13 7 18 10 W 1035,7 3,5 0 0,0
20.01.2017 05:00:00 5,6 5,1 5,3 12 6 20 11 W 1036,1 3,4 0 0,0
20.01.2017 04:00:00 5,5 5,2 5,1 10 6 16 9 W 1036,3 2,8 0 0,0
20.01.2017 03:00:00 5,5 5,2 5,2 9 5 18 10 W 1036,4 3,4 0 0,0
20.01.2017 02:00:00 5,2 4,8 5,0 14 7 21 11 W 1036,6 1,7 0 0,0
20.01.2017 01:00:00 5,3 4,4 5,0 15 8 24 13 W 1036,8 3,9 0 0,0
20.01.2017 00:00:00 5,2 4,2 4,9 17 9 27 14 WZW 1037,0 4,1 0 0,0
19.01.2017 23:00:00 5,3 4,0 5,1 17 9 25 13 W 1037,0 5 0 0,0
19.01.2017 22:00:00 5,2 3,9 5,0 17 9 26 14 WZW 1037,0 4,5 0 0,0
19.01.2017 21:00:00 5,4 4,0 5,1 16 9 23 13 WZW 1037,0 6 0 0,0
19.01.2017 20:00:00 5,3 4,0 5,0 16 8 27 15 WZW 1036,9 7 0 0,0
19.01.2017 19:00:00 4,9 3,4 4,6 18 10 27 15 WZW 1036,9 6 0 0,0
19.01.2017 18:00:00 5,2 3,6 4,9 17 9 23 12 WZW 1036,8 7 0 0,0
19.01.2017 17:00:00 5,5 3,6 4,4 12 7 22 12 W 1036,7 19 7 0,0
19.01.2017 16:00:00 5,6 3,5 5,3 15 8 24 13 W 1036,8 21 24 0,0
19.01.2017 15:00:00 5,3 3,3 5,0 18 10 29 16 WZW 1036,8 9 0 0,0
19.01.2017 14:00:00 5,3 3,2 5,8 19 10 28 15 WZW 1037,1 8 0 0,0
19.01.2017 13:00:00 5,3 3,5 5,9 18 10 28 15 W 1037,4 7 0 0,0
19.01.2017 12:00:00 5,1 3,2 5,5 21 11 29 16 WZW 1037,8 7 3 0,0
19.01.2017 11:00:00 4,8 2,9 5,0 22 12 29 16 WZW 1037,9 7 0 0,0
19.01.2017 10:00:00 4,4 2,2 4,4 21 11 29 16 W 1037,9 8 0 0,0
19.01.2017 09:00:00 4,1 1,8 3,9 21 12 32 17 WZW 1037,7 7 0 0,0
19.01.2017 08:00:00 3,5 0,8 3,4 22 12 31 17 WZW 1037,4 8 0 0,0
19.01.2017 07:00:00 3,4 0,7 3,3 24 13 33 18 WZW 1037,2 9 0 0,0
19.01.2017 06:00:00 3,2 0,6 3,1 24 13 35 19 ZW 1037,2 9 0 0,0
19.01.2017 05:00:00 3,2 0,2 3,1 24 13 32 18 WZW 1037,8 10 0 0,0
19.01.2017 04:00:00 3,1 0,0 2,9 24 13 32 17 WZW 1037,9 11 0 0,0
19.01.2017 03:00:00 2,8 0,0 2,6 24 13 32 17 ZW 1037,9 7 0 0,0
19.01.2017 02:00:00 3,2 -0,4 2,9 21 12 31 17 WZW 1038,0 10 0 0,0
19.01.2017 01:00:00 3,1 -1,2 2,2 24 13 34 18 WZW 1038,0 13 0 0,0
19.01.2017 00:00:00 3,1 -1,4 2,5 22 12 32 17 ZW 1038,0 14 0 0,0
18.01.2017 23:00:00 2,6 -0,3 2,3 22 12 32 17 ZW 1038,0 8 0 0,0
18.01.2017 22:00:00 2,6 0,1 2,1 22 12 30 16 ZW 1038,1 6 0 0,0
18.01.2017 21:00:00 2,7 0,1 2,3 22 12 31 17 WZW 1038,4 7 0 0,0
18.01.2017 20:00:00 2,4 -0,5 1,5 22 12 29 16 ZW 1038,6 8 0 0,0
18.01.2017 19:00:00 2,5 -0,5 1,3 22 12 33 18 ZW 1038,6 10 0 0,0
18.01.2017 18:00:00 2,7 -0,5 2,0 22 12 31 17 ZW 1038,6 12 0 0,0
18.01.2017 17:00:00 2,5 -0,6 2,2 22 12 32 18 ZW 1038,7 11 0 0,0
18.01.2017 16:00:00 2,7 -0,9 2,6 22 12 32 17 ZW 1038,9 16 0 0,0
18.01.2017 15:00:00 2,9 -0,5 3,2 23 12 33 18 WZW 1038,7 16 0 0,0
18.01.2017 14:00:00 2,4 -0,9 2,7 24 13 35 19 ZW 1038,8 16 0 0,0
18.01.2017 13:00:00 1,8 -0,9 2,2 22 12 32 17 ZW 1039,3 11 0 0,0
18.01.2017 12:00:00 1,4 -1,2 2,0 22 12 33 18 ZW 1039,6 11 0 0,0
18.01.2017 11:00:00 1,2 -1,3 1,4 22 12 34 18 ZW 1040,0 9 0 0,0
18.01.2017 10:00:00 2,3 -1,0 2,4 21 12 32 17 ZW 1039,4 13 0 0,0
18.01.2017 09:00:00 2,2 -1,7 1,8 21 11 32 18 ZW 1038,9 23 0 0,0
18.01.2017 08:00:00 1,9 -1,3 0,9 21 12 33 18 ZW 1038,4 18 0 0,0
18.01.2017 07:00:00 2,4 -1,3 1,7 20 11 32 18 ZW 1038,6 21 0 0,0
18.01.2017 06:00:00 2,3 -1,0 1,7 23 12 33 18 ZW 1038,7 16 0 0,0
18.01.2017 05:00:00 2,6 -1,9 1,7 23 13 32 17 WZW 1038,8 31 0 0,0
18.01.2017 04:00:00 2,5 -2,3 1,4 24 13 32 18 WZW 1038,8 37 0 0,0
18.01.2017 03:00:00 2,3 -2,4 1,4 23 12 33 18 ZW 1039,2 31 0 0,0
18.01.2017 02:00:00 2,5 -1,9 1,9 21 11 31 17 ZW 1039,3 28 0 0,0
18.01.2017 01:00:00 2,4 -2,0 1,7 22 12 29 16 ZW 1039,3 24 0 0,0
18.01.2017 00:00:00 2,5 -2,4 1,2 17 9 26 14 ZW 1039,1 24 0 0,0
17.01.2017 23:00:00 2,8 -1,6 1,7 17 9 26 14 ZW 1039,1 27 0 0,0
17.01.2017 22:00:00 3,1 -4,1 1,2 14 8 21 11 WZW 1039,0 70 0 0,0
17.01.2017 21:00:00 3,4 -4,7 2,1 13 7 17 9 WZW 1038,9 70 0 0,0
17.01.2017 20:00:00 3,3 -4,1 1,9 12 7 18 10 W 1038,9 70 0 0,0
17.01.2017 19:00:00 3,4 -3,9 2,0 11 6 20 11 W 1038,6 70 0 0,0
17.01.2017 18:00:00 3,3 -2,9 2,0 15 8 19 11 W 1038,1 70 0 0,0
17.01.2017 17:00:00 3,2 -2,6 1,9 13 7 18 10 W 1038,1 63 0 0,0
17.01.2017 16:00:00 3,3 -3,6 2,4 12 6 17 9 W 1038,1 70 2 0,0
17.01.2017 15:00:00 3,5 -3,1 3,3 13 7 16 9 WZW 1037,7 70 18 0,0
17.01.2017 14:00:00 3,3 -2,4 3,4 10 6 15 8 ZW 1038,1 64 39 0,0
17.01.2017 13:00:00 3,5 -1,4 4,6 9 5 14 8 ZZW 1038,2 54 30 0,0
17.01.2017 12:00:00 3,2 -2,3 4,2 9 5 14 8 ZZW 1038,1 55 19 0,0
17.01.2017 11:00:00 3,4 -3,0 4,4 9 5 13 7 Z 1037,8 70 29 0,0
17.01.2017 10:00:00 2,1 -3,8 -3,7 3 2 4 2 ZZO 1037,3 70 1 0,0
17.01.2017 09:00:00 1,3 -4,0 -5,5 0 0 8 5 N 1036,8 70 0 0,0
17.01.2017 08:00:00 1,5 -4,1 -2,6 5 3 11 6 N 1036,4 70 0 0,0
17.01.2017 07:00:00 2,2 -4,5 -1,5 7 4 10 6 N 1035,8 70 0 0,0
17.01.2017 06:00:00 1,5 -4,8 -3,4 6 3 11 6 N 1035,3 70 0 0,0
17.01.2017 05:00:00 1,2 -4,9 -5,8 8 4 11 6 N 1035,3 70 0 0,0
17.01.2017 04:00:00 1,9 -4,1 -2,4 8 5 15 8 NO 1035,0 70 0 0,0
17.01.2017 03:00:00 2,0 -4,0 -1,7 11 6 16 9 NNO 1034,8 70 0 0,0
17.01.2017 02:00:00 1,8 -3,9 -1,9 11 6 19 11 NNO 1034,5 70 0 0,0
17.01.2017 01:00:00 2,0 -3,0 -1,2 12 7 17 9 NNO 1034,4 70 0 0,0
17.01.2017 00:00:00 1,7 -3,4 -1,9 13 7 18 10 NO 1034,0 70 0 0,0
16.01.2017 23:00:00 1,6 -3,1 -1,6 14 7 18 10 NO 1033,6 70 0 0,0
16.01.2017 22:00:00 1,5 -2,7 -2,1 13 7 17 9 NO 1033,3 70 0 0,0
16.01.2017 21:00:00 1,4 -3,6 -1,7 13 7 17 9 NO 1032,6 69 0 0,0
16.01.2017 20:00:00 1,5 -4,2 -1,5 13 7 23 12 NO 1031,8 66 0 0,0
16.01.2017 19:00:00 1,7 -3,9 -0,9 18 10 25 13 NO 1031,2 70 0 0,0
16.01.2017 18:00:00 1,9 -3,9 -0,6 19 10 25 14 ONO 1030,8 70 0 0,0
16.01.2017 17:00:00 1,9 -4,3 -0,6 18 10 26 14 NO 1030,4 70 8 0,0
16.01.2017 16:00:00 2,2 -4,1 1,5 18 10 25 13 NO 1029,8 50 60 0,0
16.01.2017 15:00:00 2,2 -4,5 3,7 18 10 24 13 NO 1029,6 25 60 0,0
16.01.2017 14:00:00 2,4 -4,5 5,1 17 9 24 13 NO 1029,1 46 60 0,0
16.01.2017 13:00:00 2,2 -4,6 5,1 14 7 19 11 NNO 1028,9 23 60 0,0
16.01.2017 12:00:00 2,1 -3,3 4,8 13 7 20 11 NO 1028,8 37 60 0,0
16.01.2017 11:00:00 1,6 -3,8 3,0 14 8 20 11 NO 1028,6 38 60 0,0
16.01.2017 10:00:00 1,2 -3,8 0,3 13 7 18 10 NO 1028,2 70 44 0,0
16.01.2017 09:00:00 0,8 -3,8 -1,9 14 7 20 11 NO 1027,5 70 0 0,0
16.01.2017 08:00:00 0,9 -3,6 -2,1 14 8 22 12 ONO 1026,8 70 0 0,0
16.01.2017 07:00:00 0,9 -3,9 -1,7 17 9 25 13 ONO 1026,3 62 0 0,0
16.01.2017 06:00:00 1,0 -3,7 -1,4 19 11 27 15 ONO 1025,7 68 0 0,0
16.01.2017 05:00:00 0,9 -3,1 -1,5 18 10 26 14 ONO 1025,2 60 0 0,0
16.01.2017 04:00:00 0,9 -2,4 -1,6 17 9 23 12 NO 1025,0 35 0 0,0
16.01.2017 03:00:00 0,9 -2,5 -1,8 16 9 23 12 ONO 1024,7 44 0 0,0
16.01.2017 02:00:00 0,9 -3,0 -1,4 19 10 24 13 NO 1024,1 66 0 0,0
16.01.2017 01:00:00 1,4 -3,4 -1,2 15 8 24 13 NO 1024,1 62 0 0,0
16.01.2017 00:00:00 1,9 -3,0 -0,6 18 10 24 13 NO 1023,6 55 0 0,0
15.01.2017 23:00:00 1,9 -4,3 -1,2 14 7 23 12 NO 1023,1 69 0 0,0
15.01.2017 22:00:00 2,1 -4,2 -0,5 18 10 26 14 ONO 1022,5 70 0 0,0
15.01.2017 21:00:00 2,5 -2,7 0,3 19 11 26 14 ONO 1021,9 66 0 0,0
15.01.2017 20:00:00 3,2 -2,8 -0,1 16 9 22 12 NNO 1021,3 70 0 0,0
15.01.2017 19:00:00 3,5 -2,1 0,1 14 8 21 11 NNO 1020,6 65 0 0,0
15.01.2017 18:00:00 3,0 -0,5 0,5 14 8 21 11 NNW 1020,1 60 0 0,0
15.01.2017 17:00:00 2,9 -0,6 1,1 15 8 30 16 NW 1019,5 57 0 0,0
15.01.2017 16:00:00 3,3 0,4 2,9 24 13 34 18 NW 1019,1 39 9 0,0
15.01.2017 15:00:00 4,3 -2,6 5,4 7 4 25 14 NW 1018,5 44 45 0,0
15.01.2017 14:00:00 4,8 -3,8 8,0 10 5 18 10 NNW 1018,3 39 58 0,0
15.01.2017 13:00:00 4,5 -2,8 6,7 8 4 12 7 NNW 1018,0 37 60 0,0
15.01.2017 12:00:00 4,0 -3,0 6,1 9 5 18 10 N 1017,9 29 60 0,0
15.01.2017 11:00:00 3,7 -3,4 4,1 15 8 23 12 N 1017,6 43 60 0,0

tt = temperatuur
td = dauwpunt
tt 5cm = temperatuur 5cm
ff = windsnelheid
fx = windstoten
dd = windrichting
ppp = luchtdruk
vv = zicht
sd = Zonneschijnduur
rr = neerslag

Weerstations in de omgeving